Flag for U.S.A. Weather past 2 weeks in Juneau, Alaska, U.S.A.

Now
34 °F

Fog.


Feels Like: 34 °F
Forecast: 16 / 37 °F
Wind: No wind

Location: Juneau International Airport

Current Time: Jan 29, 2015 at 10:21:52 PM

Latest Report: Jan 29, 2015 at 10:00 PM


Visibility: 0 mi

Pressure: 30.31 "Hg

Humidity: 97%

Dew point: 33 °F

Location of JuneauLocation

Historic Weather in Juneau — Graph

°F

Juneau temperature yesterday

Maximum temperature yesterday: 37 °F (at 8:53 PM)
Minimum temperature yesterday: 30 °F (at 12:53 AM)
Average temperature yesterday: 32 °F

Past Weeks' High & Low Weather Summary

 TemperatureHumidityPressure
High47 °F (Jan 21, 3:53 PM)100% (Jan 18, 6:53 AM)30.30 "Hg (Jan 18, 6:53 AM)
Low25 °F (Jan 27, 3:53 AM)74% (Jan 25, 2:53 PM)29.07 "Hg (Jan 24, 7:53 PM)
Average39 °F91%29.66 "Hg
* Reported Jan 14 8:53 PM — Jan 29 8:53 PM, Juneau, Weather by CustomWeather, © 2014

Note: Actual official high and low records may vary slightly from our data, if they occured in-between our weather recording intervals... More about our weather records

Advertising

Juneau weather history for previous 24 hours

 ConditionsComfort  
Time TempWeatherWind HumidityBarometerVisibility
8:53 PM
Jan 29
34 °FFog.No wind100%30.30 "Hg3 mi
7:53 PM34 °FFog.No wind97%30.29 "Hg6 mi
6:53 PM34 °FMostly cloudy.No wind100%30.28 "Hg7 mi
5:53 PM34 °FLight rain. Mostly cloudy.No wind100%30.27 "Hg10 mi
4:53 PM34 °FLight rain. Overcast.No wind97%30.26 "Hg10 mi
3:53 PM34 °FLight rain. Fog.No wind97%30.24 "Hg6 mi
2:53 PM34 °FLight rain. Cloudy.3 mph97%30.23 "Hg10 mi
1:53 PM34 °FLight rain. Fog.No wind97%30.22 "Hg6 mi
12:53 PM34 °FLight rain. Mostly cloudy.No wind97%30.21 "Hg10 mi
11:53 AM33 °FLight rain. Mostly cloudy.No wind100%30.19 "Hg4 mi
10:53 AM33 °FLight rain. Low clouds.No wind96%30.16 "Hg3 mi
9:53 AM33 °FLight rain. Low clouds.5 mph96%30.14 "Hg2 mi
8:56 AM33 °FLight rain. Fog.6 mph100%30.11 "Hg2 mi
8:53 AM33 °FLight rain. Fog.5 mph100%30.11 "Hg3 mi
7:53 AM33 °FLight rain. Fog.No wind100%30.08 "Hg3 mi
6:53 AM33 °FFog.No wind100%30.07 "Hg6 mi
5:53 AM34 °FLight rain. Mostly cloudy.No wind97%30.06 "Hg7 mi
4:53 AM34 °FLight rain. Mostly cloudy.No wind97%30.06 "Hg8 mi
3:53 AM34 °FLight rain. Overcast.No wind97%30.06 "Hg10 mi
2:53 AM35 °FLight rain. Mostly cloudy.6 mph92%30.04 "Hg10 mi
1:53 AM36 °FLight rain. Mostly cloudy.7 mph92%30.03 "Hg10 mi
12:53 AM37 °FMostly cloudy.8 mph89%30.00 "Hg10 mi
11:53 PM
Jan 28
36 °FLight rain. Mostly cloudy.15 mph89%29.99 "Hg10 mi
10:53 PM36 °FLight rain. Mostly cloudy.16 mph89%29.98 "Hg10 mi
Weather by CustomWeather, © 2014

See weather overviewHow to use our weather pages